1287360025407,3.13266
1287360085407,3.13657
1287360145407,3.12737
1287360205407,3.14820
1287360265407,3.13966
1287360325407,3.11607
1287360385407,3.13092
1287360445407,3.15558
1287360505407,3.11569
1287360565407,3.14483
1287360625407,3.11417
1287360685407,3.14151
1287360745407,3.12167
1287360805407,3.10541
1287360865407,3.16360
1287360925407,3.14236
1287360985407,3.11611
1287361045407,3.12065
1287361105407,3.15170
1287361165407,3.14034
1287361225407,3.15290
1287361285407,3.16473
1287361345407,3.14090
1287361405407,3.14136
1287361465407,3.13934
1287361525407,3.14760
1287361585407,3.12584
1287361645407,3.13688
1287361705407,3.12780
1287361765407,3.11687
1287361825407,3.13787
1287361885407,3.11901
1287361945407,3.11409
1287362005407,3.13210
1287362065407,3.14603
1287362125407,3.15163
1287362185407,3.11242
1287362245407,3.14295
1287362305407,3.13665
1287362365407,3.13559
1287362425407,3.12085
1287362485407,3.11125
1287362545407,3.13225
1287362605407,3.11838
1287362665407,3.11361
1287362725407,3.12409
1287362785407,3.10159
1287362845407,3.15535
1287362905407,3.10329
1287362965407,3.12750
1287363025407,3.10688
1287363085407,3.12374
1287363145407,3.11993
1287363205407,3.12056
1287363265407,3.13461
1287363325407,3.11215
1287363385407,3.10170
1287363445407,3.11540
1287363505407,3.11759
1287363565407,3.11430
1287363625418,3.13643
1287363685418,3.12160
1287363745418,3.12868
1287363805418,3.11607
1287363865418,3.11166
1287363925418,3.13043
1287363985418,3.09848
1287364045418,3.08140
1287364105418,3.08581
1287364165418,3.12954
1287364225418,3.15509
1287364285418,3.16058
1287364885418,3.11027
1287364945418,3.15602
1287365005418,3.12249
1287365065418,3.12981
1287365125418,3.10971
1287365185418,3.14543
1287365245418,3.09427
1287365305418,3.08053
1287365365418,3.09443
1287365425418,3.12119
1287365485418,3.10686
1287365545418,3.13581
1287365605418,3.10081
1287365665418,3.14335
1287365725418,3.13776
1287365785418,3.11933
1287365845418,3.13739
1287365905418,3.10262
1287365965418,3.13354
1287366025418,3.14303
1287366085418,3.11456
1287366145418,3.11783
1287366205418,3.11004
1287366265418,3.14372
1287366325418,3.10125
1287366385418,3.11888
1287366445418,3.08781
1287366505418,3.09946
1287366565418,3.09743
1287366625418,3.08630
1287366685418,3.10418
1287366745418,3.12653
1287366805418,3.09786
1287366865418,3.10621
1287366925418,3.07367
1287366985418,3.12859
1287367045418,3.10544
1287367105418,3.12045
1287367165418,3.14400
1287367225429,3.13611
1287367285429,3.13374
1287367345429,3.14425
1287367405429,3.11151
1287367465429,3.12456
1287367525429,3.12134
1287367585429,3.11122
1287367645429,3.17155
1287367705429,3.15237
1287367765429,3.10016
1287367825429,3.12694
1287367885429,3.12841
1287367945429,3.10910
1287368005429,3.13431
1287368065429,3.10948
1287368125429,3.12412
1287368185429,3.16544
1287368245429,3.13548
1287368305429,3.14721
1287368365429,3.13600
1287368425429,3.15391
1287368485429,3.12575
1287368545429,3.12417
1287368605429,3.12085
1287368665429,3.12657
1287368725429,3.13507
1287368785429,3.13093
1287368845429,3.08459
1287368905429,3.09640
1287368965429,3.10725
1287369025429,3.13235
1287369085429,3.12701
1287369145429,3.10776
1287369205429,3.14695
1287369265429,3.14602
1287369325429,3.15539
1287369385429,3.11570
1287369445429,3.15269
1287369505429,3.13527
1287369565429,3.12341
1287369625429,3.12986
1287369685429,3.16517
1287369745429,3.11761
1287369805429,3.12380
1287369865429,3.10748
1287369925429,3.16329
1287369985429,3.12150
1287370045429,3.11821
1287370105429,3.15101
1287370165429,3.12973
1287370225429,3.08456
1287370285429,3.12878
1287370345429,3.12160
1287370405429,3.10847
1287370465429,3.12685
1287370525429,3.15766
1287370585429,3.13081
1287370645429,3.14949
1287370705429,3.15771
1287370765429,3.12149
1287370825439,3.15039
1287370885439,3.12052
1287370945439,3.10394
1287371005439,3.16867
1287371065439,3.16061
1287371125439,3.13711
1287371185439,3.11484
1287371245439,3.13881
1287371305439,3.12273
1287371365439,3.13144
1287371425439,3.12558
1287371485439,3.12834
1287371545439,3.17988
1287371605439,3.13409
1287371665439,3.13249
1287371725439,3.14644
1287371785439,3.12879
1287371845439,3.12922
1287371905439,3.13071
1287371965439,3.14211
1287372025439,3.13672
1287372085439,3.14891
1287372145439,3.09746
1287372205439,3.14205
1287372265439,3.14393
1287372325439,3.13816
1287372385439,3.13118
1287372445439,3.14353
1287372505439,3.16761
1287372565439,3.13825
1287372625439,3.13561
1287372685439,3.14605
1287372745439,3.15852
1287372805439,3.12286
1287372865439,3.13946
1287372925439,3.14685
1287372985439,3.13896
1287373045439,3.08692
1287373105439,3.12501
1287373165439,3.16370
1287373225439,3.13923
1287373285439,3.13511
1287373345439,3.14690
1287373405439,3.13375
1287373465439,3.13130
1287373525439,3.10727
1287373585439,3.11337
1287373645439,3.14992
1287373705439,3.12207
1287373765439,3.12989
1287373825439,3.11101
1287373885439,3.12459
1287373945439,3.15555
1287374005439,3.12221
1287374065439,3.14101
1287374125439,3.14004
1287374185439,3.17350
1287374245439,3.15785
1287374305439,3.18421
1287374365439,3.13790
1287374425450,3.16834
1287374485450,3.13433
1287374545450,3.14186
1287374605450,3.13267
1287374665450,3.14676
1287374725450,3.16862
1287374785450,3.14900
1287374845450,3.13400
1287374905450,3.13945
1287374965450,3.14264
1287375025450,3.16379
1287375085450,3.16803
1287375145450,3.12817
1287375205450,3.16474
1287375265450,3.15325
1287375325450,3.18497
1287375385450,3.16324
1287375445450,3.20595
1287375505450,3.15590
1287375565450,3.16938
1287375625450,3.14944
1287375685450,3.14996
1287375745450,3.14018
1287375805450,3.17086
1287375865450,3.14599
1287375925450,3.15509
1287375985450,3.14634
1287376045450,3.16229
1287376105450,3.13302
1287376165450,3.14709
1287376225450,3.14524
1287376285450,3.17216
1287376345450,3.18277
1287376405450,3.15817
1287376465450,3.17319
1287376525450,3.11452
1287376585450,3.18543
1287376645450,3.13493
1287376705450,3.13699
1287376765450,3.17158
1287376825450,3.15707
1287376885450,3.14342
1287376945450,3.16227
1287377005450,3.14556
1287377065450,3.19154
1287377125450,3.17464
1287377185450,3.16447
1287377245450,3.16213
1287377305450,3.15938
1287377365450,3.19039
1287377425450,3.15079
1287377485450,3.19915
1287377545450,3.17581
1287377605450,3.18840
1287377665450,3.16355
1287377725450,3.15806
1287377785450,3.17389
1287377845450,3.15991
1287377905450,3.17522
1287377965450,3.19408
1287378025460,3.13567
1287378085460,3.16536
1287378145460,3.13432
1287378205460,3.15079
1287378265460,3.15314
1287378325460,3.18267
1287378385461,3.16190
1287378445461,3.19920
1287378505461,3.18027
1287378565460,3.19425
1287378625460,3.17115
1287378685460,3.16086
1287378745460,3.18630
1287378805460,3.17936
1287378865460,3.17874
1287378925460,3.16108
1287378985460,3.15434
1287379045460,3.20504
1287379105460,3.16586
1287379165460,3.18350
1287379225460,3.13962
1287379285460,3.14879
1287379345460,3.14567
1287379405460,3.17363
1287379465460,3.15421
1287379525460,3.17668
1287379585460,3.16181
1287379645460,3.15386
1287379705460,3.15316
1287379765461,3.17883
1287379825461,3.18423
1287379885460,3.16057
1287379945460,3.17261
1287380005460,3.18390
1287380065460,3.15918
1287380125460,3.15478
1287380185460,3.15304
1287380245460,3.16160
1287380305460,3.14752
1287380365460,3.15948
1287380425460,3.15793
1287380485460,3.11707
1287380545460,3.14799
1287380605460,3.18265
1287380665460,3.17478
1287380725460,3.16987
1287380785460,3.18633
1287380845460,3.24796
1287380905460,3.19602
1287380965460,3.22251
1287381025460,3.20870
1287381085461,3.20497
1287381145461,3.17713
1287381205461,3.20842
1287381265460,3.21908
1287381325460,3.22312
1287381385460,3.15852
1287381445460,3.18502
1287381505460,3.19017
1287381565460,3.20525
1287381625471,3.16115
1287381685471,3.19953
1287381745471,3.17394
1287381805471,3.16927
1287381865471,3.20395
1287381925471,3.20082
1287381985471,3.19319
1287382045471,3.18316
1287382105471,3.19347
1287382165471,3.16696
1287382225471,3.16744
1287382285471,3.14709
1287382345471,3.18907
1287382405471,3.20434
1287382465471,3.19065
1287382525471,3.19680
1287382585471,3.17887
1287382645471,3.21172
1287382705471,3.22077
1287382765471,3.20615
1287382825471,3.18725
1287382885471,3.20656
1287382945471,3.21799
1287383005471,3.20288
1287383065471,3.21257
1287383125471,3.22781
1287383185471,3.18832
1287383245471,3.19579
1287383305471,3.17635
1287383365471,3.16843
1287383425471,3.18280
1287383485471,3.18513
1287383545471,3.18010
1287383605471,3.26277
1287383665471,3.21261
1287383725471,3.20241
1287383785471,3.19051
1287383845471,3.18276
1287383905471,3.20845
1287383965471,3.19262
1287384025471,3.18893
1287384085471,3.21551
1287384145471,3.17369
1287384205471,3.16450
1287384265471,3.16065
1287384325471,3.18736
1287384385471,3.18415
1287384445471,3.17993
1287384505471,3.17378
1287384565471,3.20948
1287384625471,3.16168
1287384685471,3.18148
1287384745471,3.17709
1287384805471,3.19294
1287384865471,3.19212
1287384925471,3.14279
1287384985471,3.17645
1287385045471,3.17429
1287385105471,3.18990
1287385165471,3.18812
1287385225482,3.16866
1287385285482,3.16966
1287385345482,3.19606
1287385405482,3.17754
1287385465482,3.18945
1287385525482,3.17946
1287385585482,3.15184
1287385645482,3.21351
1287385705482,3.17813
1287385765482,3.18228
1287385825482,3.17258
1287385885482,3.19003
1287385945482,3.18408
1287386005482,3.16607
1287386065482,3.28455
1287386125482,3.19125
1287386185482,3.17762
1287386245482,3.18992
1287386305482,3.15428
1287386365482,3.19632
1287386425482,3.16197
1287386485482,3.19353
1287386545482,3.18817
1287386605482,3.20465
1287386665482,3.14741
1287386725482,3.18797
1287386785482,3.20003
1287386845482,3.19674
1287386905482,3.17197
1287386965482,3.19222
1287387025482,3.18183
1287387085482,3.20254
1287387145482,3.19554
1287387205482,3.20122
1287387265482,3.16807
1287387325482,3.17120
1287387385482,3.17985
1287387445482,3.14404
1287387505482,3.19640
1287387565482,3.15575
1287387625482,3.20288
1287387685482,3.17273
1287387745482,3.17329
1287387805482,3.17893
1287387865482,3.19019
1287387925482,3.20014
1287387985482,3.18035
1287388045482,3.18059
1287388105482,3.15281
1287388165482,3.17044
1287388225482,3.17301
1287388285482,3.19048
1287388345482,3.18625
1287388405482,3.18681
1287388465482,3.16270
1287388525482,3.18432
1287388585482,3.15590
1287388645482,3.18068
1287388705482,3.26461
1287388765482,3.19494
1287388825493,3.16640
1287388885493,3.21618
1287388945493,3.18949
1287389005493,3.19758
1287389065493,3.14290
1287389125493,3.17204
1287389185493,3.17311
1287389245493,3.16015
1287389305493,3.16781
1287389365493,3.20826
1287389425493,3.18302
1287389485493,3.17618
1287389545493,3.19927
1287389605493,3.20870
1287389665493,3.18517
1287389725493,3.18206
1287389785493,3.18893
1287389845493,3.15768
1287389905493,3.18324
1287389965493,3.18853
1287390025493,3.18376
1287390085493,3.15895
1287390145493,3.17000
1287390205493,3.17771
1287390265493,3.19621
1287390325493,3.20066
1287390385493,3.16916
1287390445493,3.14938
1287390505493,3.19949
1287390565493,3.18316
1287390625493,3.18550
1287390685493,3.17457
1287390745493,3.17035
1287390805493,3.16001
1287390865493,3.18678
1287390925493,3.17747
1287390985493,3.18584
1287391045493,3.19926
1287391105493,3.18154
1287391165493,3.17488
1287391225493,3.19789
1287391285493,3.20284
1287391345493,3.19892
1287391405493,3.20350
1287391465493,3.15942
1287391525493,3.19030
1287391585493,3.21446
1287391645493,3.20550
1287391705493,3.21734
1287391765493,3.20106
1287391825493,3.19086
1287391885493,3.17522
1287391945493,3.20712
1287392005493,3.18000
1287392065493,3.18513
1287392125493,3.19594
1287392185493,3.14765
1287392245493,3.15904
1287392305493,3.19443
1287392365493,3.21947
1287392425504,3.21658
1287392485504,3.21239
1287392545504,3.18312
1287392605504,3.17262
1287392665504,3.20043
1287392725504,3.16124
1287392785504,3.19731
1287392845504,3.20403
1287392905504,3.19636
1287392965504,3.21097
1287393025504,3.20887
1287393085504,3.17302
1287393145504,3.16684
1287393205504,3.16259
1287393265504,3.16752
1287393325504,3.20595
1287393385504,3.18229
1287393445504,3.19866
1287393505504,3.20291
1287393565504,3.19335
1287393625504,3.17812
1287393685504,3.19641
1287393745504,3.20163
1287393805504,3.18115
1287393865504,3.21260
1287393925504,3.21112
1287393985504,3.19172
1287394045504,3.17783
1287394105504,3.17289
1287394165504,3.20541
1287394225504,3.17619
1287394285504,3.16880
1287394345504,3.15942
1287394405504,3.16806
1287394465504,3.17341
1287394525504,3.20547
1287394585504,3.19876
1287394645504,3.17513
1287394705504,3.15997
1287394765504,3.16889
1287394825504,3.20969
1287394885504,3.16303
1287394945504,3.20849
1287395005504,3.19118
1287395065504,3.18958
1287395125504,3.15558
1287395185504,3.17846
1287395245504,3.16888
1287395305504,3.19588
1287395365504,3.16975
1287395425504,3.15249
1287395485504,3.15406
1287395545504,3.18058
1287395605504,3.17609
1287395665504,3.16308
1287395725504,3.19035
1287395785504,3.17284
1287395845504,3.15807
1287395905504,3.15733
1287395965504,3.16107
1287396025515,3.14907
1287396085515,3.20675
1287396145515,3.16190
1287396205515,3.13524
1287396265515,3.17208
1287396325515,3.16078
1287396385515,3.16127
1287396445515,3.13508
1287396505515,3.16452
1287396565515,3.18773
1287396625515,3.18996
1287396685515,3.18653
1287396745515,3.16798
1287396805515,3.14059
1287396865515,3.14592
1287396925515,3.15368
1287396985515,3.13834
1287397045515,3.16172
1287397105515,3.17482
1287397165515,3.14499
1287397225515,3.16031
1287397285515,3.17578
1287397345515,3.16571
1287397405515,3.19383
1287397465515,3.16994
1287397525515,3.19520
1287397585515,3.15147
1287397645515,3.17082
1287397705515,3.15248
1287397765515,3.18191
1287397825515,3.17581
1287397885515,3.16725
1287397945515,3.17801
1287398005515,3.13764
1287398065515,3.17030
1287398125515,3.16055
1287398185515,3.17328
1287398245515,3.17102
1287398305515,3.15838
1287398365515,3.16895
1287398425515,3.15499
1287398485515,3.20139
1287398545515,3.17484
1287398605515,3.19167
1287398665515,3.18605
1287398725515,3.20118
1287398785515,3.15758
1287398845515,3.14618
1287398905515,3.16456
1287398965515,3.17476
1287399025515,3.18207
1287399085515,3.18301
1287399145515,3.19054
1287399205515,3.20887
1287399265515,3.18225
1287399325515,3.16320
1287399385515,3.16549
1287399445515,3.19113
1287399505515,3.15538
1287399565515,3.15848
1287399625526,3.16130
1287399685526,3.20207
1287399745526,3.14048
1287399805526,3.18000
1287399865526,3.14761
1287399925526,3.15693
1287399985526,3.18460
1287400045526,3.18698
1287400105526,3.16744
1287400165526,3.18442
1287400225526,3.20407
1287400285526,3.18858
1287400345526,3.20427
1287400405526,3.17237
1287400465526,3.17413
1287400525526,3.15973
1287400585526,3.19271
1287400645526,3.17544
1287400705526,3.17850
1287400765526,3.18371
1287400825526,3.17176
1287400885526,3.18509
1287400945526,3.17744
1287401005526,3.16858
1287401065526,3.20491
1287401125526,3.19174
1287401185526,3.18782
1287401245526,3.20429
1287401305526,3.22262
1287401365526,3.19919
1287401425526,3.17121
1287401485526,3.22434
1287401545526,3.20953
1287401605526,3.25557
1287401665526,3.28722
1287401725526,3.31908
1287401785526,3.35199
1287401845526,3.35950
1287401905526,3.39025
1287401965526,3.43814
1287402025526,3.40884
1287402085526,3.36885
1287402145526,3.33073
1287402205526,3.32876
1287402265526,3.33286
1287402325526,3.30974
1287402385526,3.30219
1287402445526,3.28810
1287402505526,3.24096
1287402565526,3.24718
1287402625526,3.25934
1287402685526,3.26706
1287402745526,3.23760
1287402805526,3.23262
1287402865526,3.23449
1287402925526,3.22087
1287402985526,3.26989
1287403045526,3.25111
1287403105526,3.24250
1287403165526,3.23437
1287403225537,3.22452
1287403285537,3.26909
1287403345537,3.21617
1287403405537,3.22912
1287403465537,3.22288
1287403525537,3.19528
1287403585537,3.24490
1287403645537,3.21049
1287403705537,3.22504
1287403765537,3.24512
1287403825537,3.22303
1287403885537,3.22904
1287403945537,3.25420
1287404005537,3.26283
1287404065537,3.25291
1287404125537,3.21305
1287404185537,3.19838
1287404245537,3.22472
1287404305537,3.22309
1287404365537,3.19858
1287404425537,3.22115
1287404485537,3.25074
1287404545537,3.20309
1287404605537,3.18559
1287404665537,3.20124
1287404725537,3.18164
1287404785537,3.20569
1287404845537,3.16480
1287404905537,3.21083
1287404965537,3.19062
1287405025537,3.17221
1287405085537,3.19516
1287405145537,3.19046
1287405205537,3.17051
1287405265537,3.16493
1287405325537,3.19323
1287405385537,3.21985
1287405445537,3.20672
1287405505537,3.18295
1287405565537,3.19924
1287405625537,3.20178
1287405685537,3.17186
1287405745537,3.20781
1287405805537,3.17796
1287405865537,3.22273
1287405925537,3.19529
1287405985537,3.19113
1287406045537,3.22651
1287406105537,3.20227
1287406165537,3.20388
1287406225537,3.19732
1287406285537,3.18654
1287406345537,3.18796
1287406405537,3.23071
1287406465537,3.14181
1287406525537,3.18984
1287406585537,3.20037
1287406645537,3.17394
1287406705537,3.19034
1287406765537,3.20212
1287406825549,3.20363
1287406885549,3.20597
1287406945549,3.16883
1287407005549,3.21635
1287407065549,3.23131
1287407125549,3.24288
1287407185549,3.19794
1287407245549,3.24804
1287407305549,3.23192
1287407365549,3.22564
1287407425549,3.23251
1287407485549,3.26404
1287407545549,3.23017
1287407605549,3.22309
1287407665549,3.26692
1287407725549,3.23795
1287407785549,3.23132
1287407845549,3.21739
1287407905549,3.21338
1287407965549,3.24375
1287408025549,3.17840
1287408085549,3.20514
1287408145549,3.20895
1287408205549,3.19613
1287408265549,3.19714
1287408325549,3.17628
1287408385549,3.23718
1287408445549,3.22385
1287408505549,3.21419
1287408565549,3.20657
1287408625549,3.23893
1287408685549,3.22514
1287408745549,3.23450
1287408805549,3.20244
1287408865549,3.21341
1287408925549,3.20529
1287408985549,3.20548
1287409045549,3.19070
1287409105549,3.20350
1287409165549,3.20322
1287409225549,3.18992
1287409285549,3.19402
1287409345549,3.22781
1287409405549,3.19212
1287409465549,3.20480
1287409525549,3.20206
1287409585549,3.16882
1287409645549,3.18975
1287409705549,3.18640
1287409765549,3.16915
1287409825549,3.18109
1287409885549,3.20498
1287409945549,3.18528
1287410005549,3.20095
1287410065549,3.21319
1287410125549,3.19089
1287410185549,3.21815
1287410245549,3.21474
1287410305549,3.20520
1287410365549,3.19232
1287410425561,3.19181
1287410485561,3.16832
1287410545561,3.20268
1287410605561,3.19885
1287410665561,3.21261
1287410725561,3.19088
1287410785561,3.21709
1287410845561,3.22027
1287410905561,3.21749
1287410965561,3.17297
1287411025561,3.21253
1287411085561,3.20355
1287411145561,3.22137
1287411205561,3.19138
1287411265561,3.22371
1287411325561,3.20096
1287411385561,3.19655
1287411445561,3.20769
1287411505561,3.20978
1287411565561,3.17557
1287411625561,3.21499
1287411685561,3.20331
1287411745561,3.16860
1287411805561,3.21871
1287411865561,3.18333
1287411925561,3.16713
1287411985561,3.20810
1287412045561,3.16691
1287412105561,3.19208
1287412165561,3.20378
1287412225561,3.20973
1287412285561,3.19465
1287412345561,3.16926
1287412405561,3.19924
1287412465561,3.19614
1287412525561,3.18685
1287412585561,3.16903
1287412645561,3.18869
1287412705561,3.15494
1287412765561,3.19526
1287412825561,3.15953
1287412885561,3.20127
1287412945561,3.19663
1287413005561,3.20143
1287413065561,3.22496
1287413125561,3.19415
1287413185561,3.20325
1287413245561,3.17476
1287413305561,3.19638
1287413365561,3.19094
1287413425561,3.18952
1287413485561,3.18905
1287413545561,3.19333
1287413605561,3.18700
1287413665561,3.19565
1287413725561,3.17931
1287413785561,3.15783
1287413845561,3.15349
1287413905561,3.17370
1287413965561,3.16001
1287414025573,3.18843
1287414085573,3.17265
1287414145573,3.17288
1287414205573,3.18144
1287414265573,3.19112
1287414325573,3.19004
1287414385573,3.18243
1287414445573,3.19876
1287414505573,3.14845
1287414565573,3.19289
1287414625573,3.22014
1287414685573,3.23360
1287414745573,3.19752
1287414805573,3.18630
1287414865573,3.19975
1287414925573,3.18631
1287414985573,3.15754
1287415045573,3.17169
1287415105573,3.17994
1287415165573,3.18976
1287415225573,3.20744
1287415285573,3.19533
1287415345573,3.19140
1287415405573,3.18064
1287415465573,3.18800
1287415525573,3.20065
1287415585573,3.20779
1287415645573,3.22958
1287415705573,3.21003
1287415765573,3.20947
1287415825573,3.25134
1287415885573,3.20408
1287415945573,3.19728
1287416005573,3.23358
1287416065573,3.26624
1287416125573,3.24914
1287416185573,3.27242
1287416245573,3.27567
1287416305573,3.23016
1287416365573,3.24416
1287416425573,3.24023
1287416485573,3.23172
1287416545573,3.25794
1287416605573,3.21563
1287416665573,3.23034
1287416725573,3.24827
1287416785573,3.19621
1287416845573,3.25296
1287416905573,3.20699
1287416965573,3.24303
1287417025573,3.20219
1287417085573,3.24499
1287417145573,3.24280
1287417205573,3.26342
1287417265573,3.25087
1287417325573,3.27282
1287417385573,3.24190
1287417445573,3.24573
1287417505573,3.24836
1287417565573,3.26281
1287417625586,3.25887
1287417685586,3.27262
1287417745586,3.26847
1287417805586,3.24929
1287417865586,3.24767
1287417925586,3.26977
1287417985586,3.25096
1287418045586,3.27498
1287418105586,3.23011
1287418165586,3.26175
1287418225586,3.26625
1287418285586,3.23383
1287418345586,3.23675
1287418405586,3.25033
1287418465586,3.26981
1287418525586,3.26534
1287418585586,3.24069
1287418645586,3.24494
1287418705586,3.25396
1287418765586,3.27075
1287418825586,3.27877
1287418885586,3.28078
1287418945586,3.31368
1287419005586,3.27173
1287419065586,3.30275
1287419125586,3.32870
1287419185586,3.29870
1287419245586,3.31116
1287419305586,3.34173
1287419365586,3.37667
1287419425586,3.37714
1287419485586,3.41010
1287419545586,3.42102
1287419605586,3.41845
1287419665586,3.43775
1287419725586,3.49065
1287419785586,3.52697
1287419845586,3.53172
1287419905586,3.49382
1287419965586,3.50632
1287420025586,3.51042
1287420085586,3.55547
1287420145586,3.55280
1287420205586,3.51372
1287420265586,3.56165
1287420325586,3.55711
1287420385586,3.52273
1287420445586,3.52465
1287420505586,3.53875
1287420565586,3.50487
1287420625586,3.51482
1287420685586,3.54944
1287420745586,3.52589
1287420805586,3.51992
1287420865586,3.54994
1287420925586,3.55516
1287420985586,3.53913
1287421045586,3.58001
1287421105586,3.52684
1287421165586,3.49739
1287421225598,3.50271
1287421285598,3.48909
1287421345598,3.47736
1287421405598,3.45446
1287421465598,3.48444
1287421525598,3.44696
1287421585598,3.41908
1287421645598,3.46764
1287421705598,3.43665
1287421765598,3.44342
1287421825598,3.43876
1287421885598,3.40489
1287421945598,3.43581
1287422005598,3.41663
1287422065598,3.44164
1287422125598,3.43148
1287422185598,3.42296
1287422245598,3.38168
1287422305598,3.41698
1287422365598,3.39532
1287422425598,3.42006
1287422485598,3.41963
1287422545598,3.39983
1287422605598,3.42289
1287422665598,3.45454
1287422725598,3.43812
1287422785598,3.45145
1287422845598,3.39362
1287422905598,3.38359
1287422965598,3.38925
1287423025598,3.38722
1287423085598,3.37850
1287423145598,3.35514
1287423205598,3.38276
1287423265598,3.36064
1287423325598,3.38819
1287423385598,3.38226
1287423445598,3.34370
1287423505598,3.35384
1287423565598,3.36123
1287423625598,3.34901
1287423685598,3.36357
1287423745598,3.33850
1287423805598,3.31655
1287423865598,3.32769
1287423925598,3.35716
1287423985598,3.31748
1287424045598,3.33491
1287424105598,3.29079
1287424165598,3.32988
1287424225598,3.31778
1287424285598,3.28900
1287424345598,3.29354
1287424405598,3.30101
1287424465598,3.30219
1287424525598,3.28345
1287424585598,3.28020
1287424645598,3.27280
1287424705598,3.32477
1287424765598,3.32014
1287424825610,3.26437
1287424885610,3.31665
1287424945610,3.30386
1287425005610,3.32866
1287425065610,3.29212
1287425125610,3.32429
1287425185610,3.32668
1287425245610,3.26731
1287425305610,3.30661
1287425365610,3.33683
1287425425610,3.29536
1287425485610,3.34275
1287425545610,3.29971
1287425605610,3.29159
1287425665610,3.26336
1287425725610,3.29579
1287425785610,3.30653
1287425845610,3.33650
1287425905610,3.31265